Location: *
(46.1866°S, 178.5290°W)
Time: 07:45:24
(UTC+00:00)

ATLAS 3B R/B - Pass Details

Date: 19 May 2021
Orbit: 1006 x 1189 km, 63.8° (Epoch: 10 June)

Event Time Altitude Azimuth Distance (km) Brightness Sun altitude
Rises 06:15:41 0° 298° (WNW) 4,083 7.1 -18.4°
Reaches altitude 10° 06:18:36 10° 291° (WNW) 3,117 6.3 -18.9°
Maximum altitude 06:25:43 45° 220° (SW) 1,557 3.7 -20.1°
Enters shadow 06:31:41 14° 151° (SSE) 2,723 4.5 -21.2°
